Regional Weather Roundup
Issued by NWS

Home | Current Version | Previous Version | Text Only | Print | Product List | Glossary On
Versions: 1 2 3 4 5 6 7 8 9 10 11 12 13 14 15 16 17 18 19 20 21 22 23 24 25 26 27 28 29 30 31 32 33 34 35 36 37 38 39 40 41 42 43 44 45 46 47 48 49 50
000
ASUS43 KMPX 300710
RWRMN
WEATHER ROUNDUP FOR MINNESOTA
NATIONAL WEATHER SERVICE TWIN CITIES/CHANHASSEN MN
200 AM CDT MON MAR 30 2015


NOTE: "FAIR" INDICATES FEW OR NO CLOUDS BELOW 12,000 FEET WITH NO
SIGNIFICANT WEATHER AND/OR OBSTRUCTIONS TO VISIBILITY. N/A MEANS
CURRENT SKY AND/OR WEATHER CONDITIONS ARE NOT AVAILABLE.

MNZ060>063-068>070-300800-
   Twin Cities Metro

CITY           SKY/WX    TMP DP  RH WIND       PRES   REMARKS
TWIN CITIES    CLOUDY    41  28  60 SW5       29.96S
ST PAUL        CLOUDY    41  28  60 NW3       29.97S
CRYSTAL        MOCLDY    42  27  55 SW6       29.94S
BLAINE         MOCLDY    43  28  56 SW5       29.95R
LAKEVILLE      MOCLDY    37  28  70 W6        29.96S
EDEN PRAIRIE   MOCLDY    37  28  70 SW6       29.96S
SOUTH ST PAUL  MOCLDY    42  29  60 W8        29.95S
LAKE ELMO      CLOUDY    37  28  70 W5        29.96S
$$
MNZ001>005-007-008-013>017-022>024-027-028-300800-
   Northwest Minnesota

CITY           SKY/WX    TMP DP  RH WIND       PRES   REMARKS
BEMIDJI        FAIR      31  26  81 W5        29.88S WCI  26
HALLOCK        CLEAR     34  30  86 CALM      29.87S
ROSEAU         CLEAR     37  30  75 W7        29.85S
WARROAD        CLEAR     34  28  80 W5        29.85S WCI  30
THIEF RVR FALL CLEAR     34  28  80 W3        29.89S
CROOKSTON      CLEAR     30  27  86 W3        29.90F
FOSSTON        CLEAR     27  23  86 CALM      29.90S
DETROIT LAKES  CLEAR     41  30  65 W7        29.92F
MOORHEAD       CLEAR     37  30  75 W5        29.93S
PARK RAPIDS    CLEAR     30  24  78 W6        29.90R WCI  24
MAHNOMEN       FAIR      33  28  83 W7        29.90S WCI  27
$$
MNZ006-009>011-018-025>026-300800-
   North Central Minnesota

CITY           SKY/WX    TMP DP  RH WIND       PRES   REMARKS
BAUDETTE       CLEAR     33  24  69 W6        29.84R WCI  28
FLAG ISLAND    CLEAR     36  25  64 W7        29.83S
INTL FALLS     CLEAR     33  24  69 W7        29.82R WCI  27
WASKISH        PTCLDY    34  28  80 CALM      29.86R
BIG FORK       CLEAR     32  25  74 W5        29.85S WCI  27
LONGVILLE      CLEAR     28  27  93 SW3       29.89R
GRAND RAPIDS   CLEAR     37  25  60 W8        29.86R
ORR            CLEAR     34  23  64 NW8       29.79R WCI  27
COOK           CLEAR     28  25  86 W5        29.82R WCI  23
WALKER         FAIR      35  26  69 W6        29.88S WCI  30
$$
MNZ012-019>021-037-300800-
   Northeast Minnesota

CITY           SKY/WX    TMP DP  RH WIND       PRES   REMARKS
DULUTH         CLEAR     37  25  61 W13       29.83R
ELY            CLEAR     34  25  69 W8        29.78R WCI  27
HIBBING        CLEAR     37  24  59 W8        29.83R
EVELETH        CLEAR     34  27  75 W7        29.83R WCI  28
DULUTH HARBOR  CLEAR     37  27  65 CALM      29.86R
TWO HARBORS    CLEAR     39  28  65 W5        29.79S
SILVER BAY     CLEAR     37  27  65 W7        29.77R
GRAND MARAIS     N/A     40  26  57 VRB7G20   29.72R
G MARAIS ARPRT CLEAR     32  21  64 W10G18    29.70R WCI  24
$$
MNZ029>031-032-039>041-046>048-054>057-064-300800-
   West Central Minnesota

CITY           SKY/WX    TMP DP  RH WIND       PRES   REMARKS
FERGUS FALLS   CLEAR     36  27  69 CALM      29.96S
WHEATON        CLEAR     36  27  69 W3        29.97S
MORRIS         FAIR      36  27  69 NW3       29.95S
ALEXANDRIA     CLEAR     34  26  72 SW7       29.95R WCI  28
ELBOW LAKE     FAIR      32  27  81 SW6       29.95S WCI  26
WADENA         CLEAR     36  27  69 CALM      29.92S
GLENWOOD       CLEAR     34  27  75 SW6       29.95F WCI  29
APPLETON       CLEAR     36  27  69 SW7       29.96F
BENSON         CLEAR     30  27  86 CALM      29.97R
ORTONVILLE     CLEAR     37  25  60 W7        29.97S
MADISON        CLEAR     37  25  60 SW8       29.98F
WILLMAR        FAIR      36  27  69 W3        29.99R
$$
MNZ033>034-036-042>043-049>051-058-059-300800-
   Central Minnesota

CITY           SKY/WX    TMP DP  RH WIND       PRES   REMARKS
ST CLOUD       CLOUDY    36  27  69 SW6       29.94R
SAUK CENTRE    PTSUNNY   35  28  75 SW3       29.95R
PAYNESVILLE    MOCLDY    32  27  83 SW7       29.96R WCI  25
AITKIN         CLEAR     36  25  64 SW5       29.88R
PINE RIVER     CLEAR     30  27  86 CALM      29.93S
BRAINERD       PTCLDY    30  24  78 SW7       29.91R WCI  23
STAPLES        CLEAR     32  27  80 W5        29.92S WCI  27
LONG PRAIRIE   FAIR      36  28  75 SW7       29.94R
LITTLE FALLS   MOCLDY    32  25  74 CALM      29.93R
LITCHFIELD     MOCLDY    39  28  65 CALM      29.97R
BUFFALO        MOCLDY    36  27  69 CALM      29.96S
MAPLE LAKE     MOCLDY    40  30  69 W5        29.96R
$$
MNZ037-044-045-052-053-300800-
   East Central Minnesota

CITY           SKY/WX    TMP DP  RH WIND       PRES   REMARKS
PRINCETON      PTCLDY    36  27  69 CALM      29.94R
MORA           PTCLDY    34  23  64 W5        29.93R WCI  30
CAMBRIDGE      PTCLDY    39  25  56 SW3       29.92R
RUSH CITY      PTCLDY    36  25  63 SW6       29.92R
MOOSE LAKE     CLEAR     34  25  69 CALM      29.86R
HINCKLEY       FAIR      32  27  80 W8        29.91R WCI  25
CLOQUET        CLEAR     36  25  64 W9        29.85R
MCGREGOR       CLEAR     37  27  65 W7        29.89R
$$
MNZ071>073-080-081-089-090-097-098-300800-
   Southwest Minnesota

CITY           SKY/WX    TMP DP  RH WIND       PRES   REMARKS
MONTEVIDEO     CLEAR     39  27  60 W5        29.99S
GRANITE FALLS  CLEAR     36  25  65 SW12      30.01R
CANBY          CLEAR     39  25  57 SW5       30.00F
MARSHALL       CLEAR     39  23  52 SW13      30.01S
REDWOOD FALLS  CLEAR     41  25  53 SW12      29.98S
OLIVIA         CLEAR     32  28  86 SW9       29.98R WCI  24
PIPESTONE      MOCLDY    34  21  60 SW3       30.02F
WINDOM         CLEAR     34  25  69 CALM      30.02S
WORTHINGTON    CLEAR     36  21  55 SW10      30.05R
JACKSON        CLEAR     34  25  69 SW7       30.03S WCI  28
TRACY          CLEAR     39  26  57 SW12      30.01S
SLAYTON        CLEAR     39  21  47 SW12      30.03S
$$
MNZ065>067-074>077-082>085-091>093-300800-
   South Central Minnesota

CITY           SKY/WX    TMP DP  RH WIND       PRES   REMARKS
MANKATO        MOCLDY    39  25  56 SW7       29.99S
NEW ULM        MOCLDY    34  25  69 SW5       29.99S WCI  30
ST JAMES       CLEAR     34  27  75 SW6       30.02S WCI  29
FAIRMONT       CLEAR     37  23  56 SW10      30.01S
GLENCOE        CLEAR     37  31  78 SW5       29.97R
FARIBAULT      PTCLDY    37  28  70 S3        29.98F
OWATONNA       CLEAR     36  28  75 SW6       29.98F
WASECA         CLEAR     34  28  80 SW3       30.01S
ALBERT LEA     CLEAR     36  27  69 CALM      30.00F
$$
MNZ078>079-086>088-094>096-300800-
   Southeast Minnesota

CITY           SKY/WX    TMP DP  RH WIND       PRES   REMARKS
ROCHESTER      CLOUDY    36  29  75 W10       29.99S
RED WING       CLOUDY    34  27  75 CALM      29.95F
STANTON        MOCLDY    40  29  66 SW3       29.96S
DODGE CENTER   PTCLDY    34  30  86 W8        29.98F WCI  27
WINONA         CLEAR     41  28  60 W3        29.98R
AUSTIN         CLEAR     37  28  70 SW7       30.00S
PRESTON        MOCLDY    37  29  75 W10       29.99S
$$
ABBREVIATIONS USED IN REMARKS
   TC - TEMPERATURES IN CELSIUS
  WCI - WIND CHILL INDEX
   HX - HEAT INDEX
  VSB - VISIBILITY
$$


USA.gov is the U.S. government's official web portal to all federal, state and local government web resources and services.